Location: Les Martinières
(47.2667°N, 1.4410°E)
Time: 23:36:39
(UTC+00:00)

Cosmos 2219 Rocket - Pass Details

Date: 15 May 2026
Orbit: 825 x 846 km, 71.0° (Epoch: 11 June)

Event Time Altitude Azimuth Distance (km) Brightness Sun altitude
Rises 23:42:32 0° 316° (NW) 3,407 6.1 -23.7°
Reaches altitude 10° 23:46:22 10° 290° (WNW) 2,469 4.9 -23.7°
Maximum altitude 23:48:51 13° 264° (W) 2,253 4.3 -23.7°
Enters shadow 23:49:51 13° 253° (WSW) 2,289 4.3 -23.7°
